This demonstration page uses our WeatherBlox Daily Observations layout. Learn more.

39.92423, -83.80882

Hourly Observations for May 28, 2016

Temp ( °F °C ) Dew Point ( °F °C ) Humidity (%) Winds ( mph kmh ) Pressure ( in mb ) Visibility ( mi km ) Precip ( " mm )
12:56 am 00:56 Clear 73 22.7 64 17.7 73 73 Calm 30.03 1017 10 16.0934 0 0
1:56 am 01:56 Clear 71 21.6 64 17.7 79 79 SSE 6 9 30.02 1017 10 16.0934 0 0
2:56 am 02:56 Clear 73 22.7 65 18.3 76 76 S 5 7 30.01 1016 10 16.0934 0 0
3:56 am 03:56 Clear 72 22.2 65 18.3 79 79 SSE 7 11 30.01 1016 10 16.0934 0 0
4:56 am 04:56 Clear 71 21.6 65 18.3 82 82 S 6 9 30.02 1017 10 16.0934 0 0
5:56 am 05:56 Clear 71 21.6 65 18.3 82 82 S 6 9 30.03 1017 10 16.0934 0 0
6:56 am 06:56 Sunny 70 21.1 65 18.3 84 84 S 5 7 30.06 1018 10 16.0934 0 0
7:56 am 07:56 Sunny 70 21.1 66 18.8 87 87 S 6 9 30.07 1018 10 16.0934 0 0
8:56 am 08:56 Mostly Sunny 74 23.3 66 18.8 76 76 SSW 10 17 30.08 1019 10 16.0934 0 0
9:56 am 09:56 Sunny 78 25.5 66 18.8 67 67 SW 15 24 30.1 1019 10 16.0934 0 0
10:56 am 10:56 Mostly Sunny 79 26.1 67 19.4 67 67 SSW 8 13 30.11 1020 10 16.0934 0 0
11:56 am 11:56 Sunny 83 28.3 67 19.4 59 59 WSW 12 19 30.11 1020 10 16.0934 0 0
12:56 pm 12:56 Sunny 84 28.8 68 20 59 59 SSW 14 22 30.1 1019 10 16.0934 0 0
1:56 pm 13:56 Mostly Sunny 79 26.1 67 19.4 67 67 S 12 19 30.1 1019 10 16.0934 0 0
2:56 pm 14:56 Mostly Sunny 80 26.6 67 19.4 65 65 WSW 10 17 30.09 1019 10 16.0934 0 0
3:56 pm 15:56 Sunny 85 29.4 66 18.8 53 53 SSW 13 20 30.06 1018 10 16.0934 0 0
4:56 pm 16:56 Mostly Sunny 83 28.3 65 18.3 55 55 SSW 10 17 30.06 1018 10 16.0934 0 0
5:56 pm 17:56 Partly Cloudy 82 27.7 67 19.4 61 61 S 9 15 30.06 1018 10 16.0934 0 0
6:04 pm 18:04 Mostly Cloudy with Nearby Thunderstorms 82 28 66 19 58 58 S 7 11 30.03 1017 10 16.0934 0 0
6:29 pm 18:29 Mostly Sunny 81 27 66 19 62 62 S 6 9 30.03 1017 10 16.0934 0 0
6:56 pm 18:56 Sunny 80 26.6 66 18.8 62 62 SW 6 9 30.06 1018 10 16.0934 0 0
7:16 pm 19:16 Hazy 82 28 66 19 58 58 S 6 9 30.03 1017 1.75 2.816345 0 0
7:24 pm 19:24 Hazy 82 28 66 19 58 58 SSW 6 9 30.03 1017 3 4.82802 0 0
7:56 pm 19:56 Sunny 80 26.6 67 19.4 65 65 SSW 5 7 30.07 1018 10 16.0934 0 0
8:56 pm 20:56 Mostly Clear 76 24.4 67 19.4 74 74 Calm 30.08 1019 10 16.0934 0 0
9:56 pm 21:56 Clear 73 22.7 67 19.4 82 82 Calm 30.09 1019 10 16.0934 0 0
10:56 pm 22:56 Clear 72 22.2 65 18.3 79 79 SSW 5 7 30.09 1019 10 16.0934 0 0
11:56 pm 23:56 Clear 71 21.6 65 18.3 82 82 S 3 6 30.08 1019 10 16.0934 0 0

Powered by AerisWeather